< < Back
Terminal Aerodrome Forecast


Current Version              Previous Versions:   1  2  3  4  5  6  7  8  9  

Terminal Aerodrome Forecast

050
FTUS42 KJAX 181100
TAFSSI
TAF
KSSI 181123Z 1812/1912 VRB04KT P6SM FEW010 SCT250
     FM181600 11005KT P6SM SCT035
     FM181900 12010KT P6SM VCSH BKN035
     FM190200 11005KT P6SM SCT035 SCT250=

Latest METAR

004
SAUS70 KWBC 190600
MTRSSI
METAR KSSI 190553Z AUTO 00000KT 10SM FEW028 26/22 A2995 RMK AO2 SLP143
T02560222 10272 20256 58002


USA.gov is the U.S. government's official web portal to all federal, state and local government web resources and services.